Terug naar catalogus

SL-16 DEB

LostLEO
NORAD 42237·DEBRIS·🇷🇺 Russia

Gelanceerd Mar 26, 1993 vanaf Baikonur Cosmodrome

Loading…

Volgende Passages (komende 24 uur)

TLE

VerouderdSource: Space-Track

Epoch: Apr 13, 2025, 05:15 UTC

1 42237U 93016CR  25103.21929655  .00353780  00000-0  22364-1 0  9991
2 42237  70.9050  82.2558 0019398 101.9628 258.3718 15.07017809133614

Volg SL-16 DEB in realtime met AllMySat

Download on the App Store